Jackson, MN

4:46 PM CST on February 21, 2017 (GMT -0600)
Jackson Municipal

Weather History for KMJQ - January, 2013

Change the Weather History Date:

Thursday, January 17, 2013

  Actual Average Record
Temperature  
Mean Temperature 19 °F -  
Max Temperature 32 °F 22 °F 41 °F (2002)
Min Temperature 6 °F 6 °F -14 °F (1997)
Degree Days  
Heating Degree Days 46    
Moisture  
Dew Point 11 °F    
Average Humidity 67    
Maximum Humidity 80    
Minimum Humidity 45    
Precipitation  
Precipitation 0.00 in - - ()
Sea Level Pressure  
Sea Level Pressure 30.32 in    
Wind  
Wind Speed 9 mph (WNW)    
Max Wind Speed 14 mph    
Max Gust Speed 22 mph    
Visibility 10 miles    
Events      
Averages and records for this station are not official NWS values.
T = Trace of Precipitation, MM = Missing Value Source: NWS Daily Summary

Daily Weather History Graph

Daily Weather History Graph

Search for Another Location

Airport or City:

Trip Planner

Search our weather history database for the weather conditions in past years. The results will help you decide how hot, cold, wet, or windy it might be!

Date:

Astronomy

Jan. 17, 2013 Rise Set
Actual Time 7:49 AM CST 5:11 PM CST
Civil Twilight 7:17 AM CST 5:43 PM CST
Nautical Twilight 6:42 AM CST 6:18 PM CST
Astronomical Twilight 6:07 AM CST 6:52 PM CST
Moon 10:42 AM CST (1/17) No Moon Set
Length of Visible Light 10h 25m
Length of Day
9h 22m
Waxing Crescent, 38% of the Moon is Illuminated
Jan 17
Waxing Crescent
Jan 18
First Quarter
Jan 26
Full
Feb 3
Last Quarter
Feb 10
New

Hourly Weather History & Observations

Time (CST) Temp. Windchill Dew Point Humidity Pressure Visibility Wind Dir Wind Speed Gust Speed Precip Events Conditions
12:13 AM 10.4 °F -5.4 °F -0.4 °F 62% 30.23 in 10.0 mi NNW 13.8 mph - N/A   Clear
12:32 AM 8.6 °F -6.3 °F -0.4 °F 67% 30.25 in 10.0 mi NW 11.5 mph - N/A   Clear
12:53 AM 8.6 °F -6.3 °F -0.4 °F 67% 30.25 in 10.0 mi NW 11.5 mph - N/A   Clear
1:13 AM 8.6 °F 0.1 °F -0.4 °F 67% 30.27 in 10.0 mi NW 4.6 mph - N/A   Clear
1:32 AM 8.6 °F -1.3 °F -0.4 °F 67% 30.27 in 10.0 mi NW 5.8 mph - N/A   Clear
1:53 AM 8.6 °F 2.0 °F -0.4 °F 67% 30.27 in 10.0 mi NNW 3.5 mph - N/A   Clear
2:13 AM 8.6 °F -6.3 °F -0.4 °F 67% 30.29 in 10.0 mi NNW 11.5 mph - N/A   Clear
2:32 AM 8.6 °F -5.5 °F -0.4 °F 67% 30.31 in 10.0 mi NW 10.4 mph - N/A   Clear
2:53 AM 8.6 °F -2.6 °F -2.2 °F 62% 30.32 in 10.0 mi NW 6.9 mph - N/A   Clear
3:12 AM 8.6 °F -4.7 °F -2.2 °F 62% 30.32 in 10.0 mi NW 9.2 mph - N/A   Clear
3:33 AM 8.6 °F -6.3 °F -4.0 °F 57% 30.33 in 10.0 mi NW 11.5 mph - N/A   Clear
3:53 AM 6.8 °F -8.6 °F -2.2 °F 67% 30.32 in 10.0 mi WNW 11.5 mph - N/A   Clear
4:12 AM 6.8 °F -6.9 °F -4.0 °F 61% 30.32 in 10.0 mi WNW 9.2 mph - N/A   Scattered Clouds
4:33 AM 8.6 °F -1.3 °F -2.2 °F 62% 30.32 in 10.0 mi WNW 5.8 mph - N/A   Mostly Cloudy
4:53 AM 8.6 °F -3.7 °F -4.0 °F 57% 30.32 in 10.0 mi NW 8.1 mph - N/A   Overcast
5:12 AM 10.4 °F -4.1 °F -4.0 °F 52% 30.33 in 10.0 mi NW 11.5 mph - N/A   Overcast
5:33 AM 10.4 °F -1.5 °F -4.0 °F 52% 30.33 in 10.0 mi NW 8.1 mph - N/A   Overcast
6:12 AM 10.4 °F 0.8 °F -4.0 °F 52% 30.33 in 10.0 mi WNW 5.8 mph - N/A   Overcast
6:33 AM 10.4 °F -1.5 °F -5.8 °F 48% 30.34 in 10.0 mi West 8.1 mph - N/A   Overcast
6:53 AM 12.2 °F 2.9 °F -4.0 °F 48% 30.34 in 10.0 mi West 5.8 mph - N/A   Overcast
7:13 AM 12.2 °F 4.3 °F -4.0 °F 48% 30.35 in 10.0 mi West 4.6 mph - N/A   Overcast
7:33 AM 12.2 °F 6.1 °F -4.0 °F 48% 30.34 in 10.0 mi West 3.5 mph - N/A   Overcast
7:53 AM 12.2 °F 4.3 °F -4.0 °F 48% 30.34 in 10.0 mi WSW 4.6 mph - N/A   Overcast
8:13 AM 12.2 °F -1.8 °F -2.2 °F 53% 30.32 in 10.0 mi SSW 11.5 mph - N/A   Overcast
8:33 AM 14.0 °F 1.2 °F -0.4 °F 53% 30.33 in 10.0 mi SW 10.4 mph - N/A   Overcast
8:52 AM 14.0 °F 8.2 °F 1.4 °F 57% 30.34 in 10.0 mi SSW 3.5 mph - N/A   Overcast
9:13 AM 15.8 °F 4.2 °F 1.4 °F 53% 30.34 in 10.0 mi SW 9.2 mph - N/A   Overcast
9:33 AM 17.6 °F 8.2 °F -0.4 °F 45% 30.35 in 10.0 mi SW 6.9 mph - N/A   Scattered Clouds
9:52 AM 19.4 °F 8.6 °F 1.4 °F 46% 30.37 in 10.0 mi SW 9.2 mph - N/A   Scattered Clouds
10:13 AM 19.4 °F 8.6 °F 5.0 °F 54% 30.37 in 10.0 mi WSW 9.2 mph - N/A   Overcast
10:33 AM 21.2 °F 11.7 °F 8.6 °F 58% 30.37 in 10.0 mi WSW 8.1 mph - N/A   Overcast
10:52 AM 23.0 °F 13.9 °F 10.4 °F 59% 30.36 in 10.0 mi West 8.1 mph - N/A   Mostly Cloudy
11:13 AM 26.6 °F 16.8 °F 14.0 °F 59% 30.36 in 10.0 mi West 10.4 mph - N/A   Scattered Clouds
11:33 AM 26.6 °F 15.2 °F 17.6 °F 69% 30.37 in 10.0 mi West 13.8 mph - N/A   Clear
11:52 AM 28.4 °F 18.5 °F 17.6 °F 64% 30.36 in 10.0 mi West 11.5 mph - N/A   Clear
12:13 PM 30.2 °F 21.3 °F 19.4 °F 64% 30.35 in 10.0 mi West 10.4 mph - N/A   Clear
12:33 PM 30.2 °F 21.3 °F 21.2 °F 69% 30.35 in 10.0 mi WNW 10.4 mph - N/A   Scattered Clouds
12:52 PM 30.2 °F 20.2 °F 21.2 °F 69% 30.36 in 10.0 mi WNW 12.7 mph 21.9 mph N/A   Mostly Cloudy
1:13 PM 32.0 °F 23.0 °F 21.2 °F 64% 30.34 in 10.0 mi NW 11.5 mph - N/A   Mostly Cloudy
1:32 PM 32.0 °F 22.1 °F 21.2 °F 64% 30.34 in 10.0 mi NW 13.8 mph 17.3 mph N/A   Clear
1:53 PM 32.0 °F 23.6 °F 23.0 °F 69% 30.33 in 10.0 mi NNW 10.4 mph 20.7 mph N/A   Scattered Clouds
2:13 PM 32.0 °F 22.5 °F 23.0 °F 69% 30.33 in 10.0 mi NNW 12.7 mph 16.1 mph N/A   Overcast
2:33 PM 32.0 °F 24.2 °F 23.0 °F 69% 30.33 in 10.0 mi NW 9.2 mph - N/A   Overcast
2:53 PM 32.0 °F 26.4 °F 23.0 °F 69% 30.32 in 10.0 mi North 5.8 mph - N/A   Overcast
3:12 PM 32.0 °F 23.0 °F 23.0 °F 69% 30.34 in 10.0 mi North 11.5 mph - N/A   Overcast
3:33 PM 30.2 °F 21.9 °F 21.2 °F 69% 30.35 in 10.0 mi North 9.2 mph - N/A   Overcast
3:53 PM 28.4 °F 24.6 °F 21.2 °F 74% 30.34 in 10.0 mi North 3.5 mph - N/A   Scattered Clouds
4:13 PM 28.4 °F 24.6 °F 21.2 °F 74% 30.35 in 10.0 mi North 3.5 mph - N/A   Mostly Cloudy
4:33 PM 28.4 °F - 21.2 °F 74% 30.35 in 10.0 mi Calm Calm - N/A   Mostly Cloudy
4:53 PM 28.4 °F 24.6 °F 21.2 °F 74% 30.35 in 10.0 mi NE 3.5 mph - N/A   Mostly Cloudy
5:13 PM 26.6 °F - 21.2 °F 80% 30.35 in 10.0 mi Calm Calm - N/A   Overcast
5:33 PM 28.4 °F - 21.2 °F 74% 30.35 in 10.0 mi Calm Calm - N/A   Overcast
5:53 PM 26.6 °F 22.6 °F 21.2 °F 80% 30.35 in 10.0 mi NE 3.5 mph - N/A   Overcast
6:13 PM 26.6 °F 21.2 °F 21.2 °F 80% 30.35 in 10.0 mi ENE 4.6 mph - N/A   Mostly Cloudy
6:33 PM 26.6 °F 21.2 °F 21.2 °F 80% 30.34 in 10.0 mi ENE 4.6 mph - N/A   Scattered Clouds
6:53 PM 26.6 °F 22.6 °F 21.2 °F 80% 30.34 in 10.0 mi East 3.5 mph - N/A   Mostly Cloudy
7:12 PM 26.6 °F 22.6 °F 21.2 °F 80% 30.34 in 10.0 mi SE 3.5 mph - N/A   Overcast
7:33 PM 26.6 °F 21.2 °F 21.2 °F 80% 30.34 in 10.0 mi ESE 4.6 mph - N/A   Overcast
7:53 PM 26.6 °F 21.2 °F 21.2 °F 80% 30.33 in 10.0 mi SE 4.6 mph - N/A   Overcast
8:12 PM 26.6 °F 21.2 °F 21.2 °F 80% 30.32 in 10.0 mi SE 4.6 mph - N/A   Overcast
8:53 PM 26.6 °F 20.0 °F 21.2 °F 80% 30.30 in 10.0 mi SSE 5.8 mph - N/A   Overcast
9:12 PM 26.6 °F 19.1 °F 21.2 °F 80% 30.30 in 10.0 mi SE 6.9 mph - N/A   Overcast
9:33 PM 26.6 °F 18.2 °F 21.2 °F 80% 30.28 in 10.0 mi SE 8.1 mph - N/A   Overcast
9:53 PM 26.6 °F 19.1 °F 21.2 °F 80% 30.27 in 10.0 mi SE 6.9 mph - N/A   Overcast
10:12 PM 26.6 °F 16.8 °F 21.2 °F 80% 30.25 in 10.0 mi SSE 10.4 mph - N/A   Overcast
10:33 PM 26.6 °F 17.5 °F 21.2 °F 80% 30.25 in 10.0 mi SSE 9.2 mph - N/A   Overcast
10:53 PM 26.6 °F 18.2 °F 21.2 °F 80% 30.24 in 10.0 mi SE 8.1 mph - N/A   Overcast
11:13 PM 26.6 °F 19.1 °F 21.2 °F 80% 30.23 in 10.0 mi SE 6.9 mph - N/A   Mostly Cloudy
11:33 PM 26.6 °F 18.2 °F 21.2 °F 80% 30.22 in 10.0 mi SE 8.1 mph - N/A   Scattered Clouds
11:53 PM 26.6 °F 16.8 °F 21.2 °F 80% 30.20 in 10.0 mi SSE 10.4 mph - N/A   Clear